TimeMST,TemperatureF,Dew PointF,Humidity,Sea Level PressureIn,VisibilityMPH,Wind Direction,Wind SpeedMPH,Gust SpeedMPH,PrecipitationIn,Events,Conditions,WindDirDegrees,DateUTC
12:55 AM,48.0,32.0,54,30.06,7.0,WSW,5.8,-,N/A,,Clear,240,2013-02-10 07:55:00
1:55 AM,48.0,32.0,54,30.06,7.0,WSW,5.8,-,N/A,,Clear,250,2013-02-10 08:55:00
2:55 AM,46.9,30.9,54,30.05,7.0,Calm,Calm,-,N/A,,Clear,0,2013-02-10 09:55:00
3:55 AM,46.0,30.0,54,30.04,7.0,NW,3.5,-,N/A,,Clear,320,2013-02-10 10:55:00
4:55 AM,46.0,30.0,54,30.03,7.0,Calm,Calm,-,N/A,,Clear,0,2013-02-10 11:55:00
5:55 AM,42.1,30.9,65,30.03,7.0,Calm,Calm,-,N/A,,Clear,0,2013-02-10 12:55:00
6:55 AM,41.0,30.9,67,30.04,7.0,Calm,Calm,-,N/A,,Clear,0,2013-02-10 13:55:00
7:55 AM,41.0,30.9,67,30.05,7.0,Calm,Calm,-,N/A,,Clear,0,2013-02-10 14:55:00
8:55 AM,46.9,30.9,54,30.05,7.0,Calm,Calm,-,N/A,,Clear,0,2013-02-10 15:55:00
9:55 AM,53.1,28.9,40,30.05,7.0,Variable,3.5,-,N/A,,Clear,0,2013-02-10 16:55:00
10:55 AM,55.0,30.0,38,30.05,7.0,West,6.9,-,N/A,,Clear,270,2013-02-10 17:55:00
11:55 AM,57.9,30.0,35,30.04,7.0,NNW,6.9,-,N/A,,Partly Cloudy,340,2013-02-10 18:55:00
12:55 PM,59.0,28.0,31,30.02,7.0,WNW,4.6,-,N/A,,Partly Cloudy,300,2013-02-10 19:55:00
1:55 PM,60.1,27.0,28,30.00,7.0,West,9.2,-,N/A,,Partly Cloudy,260,2013-02-10 20:55:00
2:55 PM,61.0,25.0,25,29.98,7.0,West,6.9,-,N/A,,Partly Cloudy,260,2013-02-10 21:55:00
3:55 PM,61.0,26.1,26,29.97,7.0,WNW,6.9,-,N/A,,Partly Cloudy,300,2013-02-10 22:55:00
4:55 PM,61.0,25.0,25,29.96,7.0,WSW,6.9,-,N/A,,Partly Cloudy,250,2013-02-10 23:55:00
5:55 PM,59.0,26.1,28,29.96,7.0,WNW,5.8,-,N/A,,Partly Cloudy,290,2013-02-11 00:55:00
6:55 PM,57.0,28.0,33,29.96,7.0,Calm,Calm,-,N/A,,Partly Cloudy,0,2013-02-11 01:55:00
7:55 PM,53.1,30.9,43,29.97,7.0,Calm,Calm,-,N/A,,Partly Cloudy,0,2013-02-11 02:55:00
8:55 PM,53.1,30.0,41,29.99,7.0,WNW,4.6,-,N/A,,Partly Cloudy,290,2013-02-11 03:55:00
9:55 PM,53.1,30.0,41,29.99,7.0,West,5.8,-,N/A,,Clear,260,2013-02-11 04:55:00
10:55 PM,52.0,30.0,43,30.00,7.0,West,5.8,-,N/A,,Partly Cloudy,260,2013-02-11 05:55:00
11:55 PM,48.0,30.9,52,30.00,7.0,Calm,Calm,-,N/A,,Partly Cloudy,0,2013-02-11 06:55:00